Location: Pasadena-CA
(34.1440°N, 118.1100°W)
Time: 17:48:49
(UTC-07:00)

FALCONSAT 3 - Visible Passes

Search period start: 27 June 2022 00:00
Search period end: 07 July 2022 00:00
Orbit: 402 x 407 km, 35.4° (Epoch: 27 June)

Date Brightness Start Highest point End Pass type
(mag) Time Alt. Az. Time Alt. Az. Time Alt. Az.
27 Jun ? 03:25:35 11° ESE 03:25:35 11° ESE 03:25:42 10° ESE visible
27 Jun ? 04:58:17 12° WSW 04:59:48 15° SSW 05:01:49 10° S visible
28 Jun ? 20:41:34 10° SSE 20:42:11 10° SSE 20:42:47 10° SE visible
29 Jun ? 21:22:38 10° SW 21:25:38 32° SSE 21:26:17 29° SE visible
30 Jun ? 22:05:58 10° WSW 22:08:39 56° WSW 22:08:39 56° WSW visible
01 Jul ? 21:12:02 10° WSW 21:15:18 63° SSE 21:17:59 14° E visible
01 Jul ? 22:49:43 10° W 22:50:37 17° W 22:50:37 17° W visible
02 Jul ? 21:55:40 10° W 21:58:58 72° N 21:59:36 52° ENE visible
03 Jul ? 21:01:33 10° W 21:04:52 83° N 21:08:10 10° E visible
03 Jul ? 22:39:20 10° W 22:40:58 26° WNW 22:40:58 26° WNW visible
04 Jul ? 21:45:11 10° W 21:48:29 68° N 21:49:32 38° ENE visible
05 Jul ? 20:50:58 10° W 20:54:14 68° N 20:57:32 10° E visible
05 Jul ? 22:28:41 10° W 22:30:34 31° W 22:30:34 31° W visible
06 Jul ? 21:34:26 10° W 21:37:44 83° N 21:38:55 37° E visible
